Regional Weather Roundup
Issued by NWS

Home | Current Version | Previous Version | Graphics & Text | Print | Product List | Glossary On
Versions: 1 2 3 4 5 6 7 8 9 10 11 12 13 14 15 16 17 18 19 20 21 22 23 24 25 26 27 28 29 30 31 32 33 34 35 36 37 38 39 40 41 42 43 44 45 46 47 48 49 50
000
ASUS45 KCYS 301010
RWRWY

WYOMING REGIONAL WEATHER ROUNDUP
NATIONAL WEATHER SERVICE CHEYENNE WY
400 AM MDT WED JUL 30 2014

NOTE:  "FAIR" INDICATES FEW OR NO CLOUDS BELOW 12,000 FEET
WITH NO SIGNIFICANT WEATHER AND/OR OBSTRUCTIONS TO VISIBILITY.

WYZ001-301100-
YELLOWSTONE NATIONAL PARK

CITY           SKY/WX    TMP DP  RH WIND       PRES   REMARKS
LK YELLOWSTONE   N/A     42  41  96 CALM      30.47S
W YELLOWSTONE  NOT AVBL

$$
WYZ002>013-054>058-071-098>099-301100-
NORTHERN WYOMING

CITY           SKY/WX    TMP DP  RH WIND       PRES   REMARKS
JACKSON        MOCLDY    52  48  87 N18       30.34F
CODY           NOT AVBL
GREYBULL       PTCLDY    57  53  86 CALM      30.26S
WORLAND        MOCLDY    56  54  93 S3        30.27S
SHERIDAN       CLEAR     50  44  80 CALM      30.24S
BUFFALO        CLEAR     56  43  61 W7        30.31R
GILLETTE       PTCLDY    58  52  80 S6        30.27R
HULETT         FAIR      59  52  77 MISG      30.27
NEWCASTLE      FAIR      54  52  94 N7        30.29

$$
WYZ014>020-022>026-101>103-301100-
CENTRAL WYOMING

CITY           SKY/WX    TMP DP  RH WIND       PRES   REMARKS
BIG PINEY      CLOUDY    55  53  93 W3        30.38S
PINEDALE       CLOUDY    52  50  93 NW3       30.39S
DUBOIS         PTSUNNY   46  45  93 NW7       30.41F
LANDER         CLOUDY    58  55  90 N3        30.34S
RIVERTON       CLOUDY    56  53  90 N7        30.34S
CASPER         CLOUDY    53  51  93 NW6       30.32S
DOUGLAS        CLOUDY    55  53  93 CALM      30.32R

$$
WYZ021-027>030-104>119-301100-
SOUTHERN WYOMING

CITY           SKY/WX    TMP DP  RH WIND       PRES   REMARKS
EVANSTON       CLOUDY    55  53  93 NE10      30.34F
KEMMERER       DRIZZLE   52  50  93 NE16      30.38R
FORT BRIDGER   CLOUDY    55  55 100 E10       30.38S
ROCK SPRINGS   CLOUDY    56  52  86 NE13      30.34S
DIXON          HVY RAIN  57  56  96 CALM      30.31S
RAWLINS        LGT RAIN  53  52  96 NE13      30.34S
SARATOGA       RAIN      54  52  94 CALM      30.34S
LARAMIE        LGT RAIN  53  51  93 E7        30.36R
CHEYENNE       LGT RAIN  55  54  96 NE5       30.33R FOG
TORRINGTON     CLOUDY    61  57  87 N7        30.25R
PINE BLUFFS    LGT RAIN  57  55  94 CALM      30.29S

$$



USA.gov is the U.S. government's official web portal to all federal, state and local government web resources and services.